Location: Clair
(33.8067°N, 117.9845°W)
Time: 08:00:17
(UTC+00:00)

Cosmos 2369 - Pass Details

Date: 14 February 2026
Orbit: 840 x 853 km, 71.0° (Epoch: 12 March)

Event Time Altitude Azimuth Distance (km) Brightness Sun altitude
Rises 13:40:53 0° 223° (SW) 3,394 6.5 -12.3°
Reaches altitude 10° 13:43:32 10° 233° (SW) 2,460 5.7 -11.8°
Maximum altitude 13:48:37 34° 297° (WNW) 1,359 4.3 -10.7°
Drops below altitude 10° 13:53:44 10° 2° (N) 2,464 6.1 -9.7°
Sets 13:56:25 0° 11° (NNE) 3,401 6.9 -9.1°
